Kahului, HI

4:58 AM HST on July 25, 2016 (GMT -1000)
Kahului

Weather History for PHOG - March, 2014

Change the Weather History Date:

Sunday, March 9, 2014

  Actual Average Record
Temperature  
Mean Temperature 76 °F 73 °F  
Max Temperature 82 °F 81 °F 89 °F (1958)
Min Temperature 70 °F 64 °F 54 °F (1950)
Degree Days  
Heating Degree Days 0 0  
Month to date heating degree days 0 0  
Since 1 July heating degree days 0 0  
Cooling Degree Days 11 8  
Month to date cooling degree days 75 64  
Year to date cooling degree days 586 473  
Growing Degree Days 26 (Base 50)    
Moisture  
Dew Point 70 °F    
Average Humidity 84    
Maximum Humidity 100    
Minimum Humidity 67    
Precipitation  
Precipitation 0.01 in 0.08 in 0.52 in (1991)
Month to date precipitation 1.53 0.67  
Year to date precipitation 8.18 5.43  
Snow  
Snow 0.00 in - - ()
Month to date snowfall 0.0  
Since 1 July snowfall 0.0  
Snow Depth 0.00 in    
Sea Level Pressure  
Sea Level Pressure 30.06 in    
Wind  
Wind Speed 13 mph (NE)    
Max Wind Speed 24 mph    
Max Gust Speed 32 mph    
Visibility 10 miles    
Events Rain    
T = Trace of Precipitation, MM = Missing Value Source: NWS Daily Summary

Daily Weather History Graph

Daily Weather History Graph

Search for Another Location

Airport or City:

Trip Planner

Search our weather history database for the weather conditions in past years. The results will help you decide how hot, cold, wet, or windy it might be!

Date:

Astronomy

Mar. 09, 2014 Rise Set
Actual Time 6:39 AM HST 6:33 PM HST
Civil Twilight 6:17 AM HST 6:55 PM HST
Nautical Twilight 5:51 AM HST 7:21 PM HST
Astronomical Twilight 5:25 AM HST 7:46 PM HST
Moon 1:05 PM HST (3/9) 1:43 AM HST (3/9)
Length of Visible Light 12h 38m
Length of Day
11h 54m
Waxing Gibbous, 63% of the Moon is Illuminated
Mar 9
Waxing Gibbous
Mar 16
Full
Mar 23
Last Quarter
Mar 30
New
Apr 6
First Quarter

Hourly Weather History & Observations

Time (HST) Temp. Heat Index Dew Point Humidity Pressure Visibility Wind Dir Wind Speed Gust Speed Precip Events Conditions
12:54 AM 72.0 °F - 69.1 °F 91% 30.09 in 10.0 mi NE 9.2 mph - N/A   Mostly Cloudy
1:54 AM 72.0 °F - 70.0 °F 93% 30.07 in 10.0 mi NE 10.4 mph - 0.01 in   Overcast
2:21 AM 71.6 °F - 69.8 °F 94% 30.05 in 9.0 mi ENE 11.5 mph 18.4 mph 0.00 in Rain Light Rain
2:35 AM 71.6 °F - 71.6 °F 100% 30.05 in 10.0 mi NE 13.8 mph 21.9 mph 0.00 in Rain Light Rain
2:43 AM 71.6 °F - 69.8 °F 94% 30.05 in 10.0 mi ENE 12.7 mph - 0.00 in Rain Light Rain
2:52 AM 71.6 °F - 69.8 °F 94% 30.05 in 10.0 mi ENE 10.4 mph - 0.00 in   Overcast
2:54 AM 71.1 °F - 70.0 °F 96% 30.06 in 10.0 mi ENE 10.4 mph - 0.00 in   Overcast
3:32 AM 71.6 °F - 71.6 °F 100% 30.04 in 9.0 mi NE 12.7 mph 20.7 mph N/A   Overcast
3:40 AM 71.6 °F - 71.6 °F 100% 30.04 in 8.0 mi NE 12.7 mph 19.6 mph 0.00 in Rain Light Rain
3:54 AM 72.0 °F - 71.1 °F 97% 30.05 in 8.0 mi NE 13.8 mph - 0.00 in Rain Light Rain
4:14 AM 71.6 °F - 69.8 °F 94% 30.03 in 10.0 mi NE 13.8 mph - 0.00 in Rain Light Rain
4:54 AM 71.1 °F - 69.1 °F 93% 30.06 in 10.0 mi ENE 9.2 mph - 0.00 in   Overcast
5:11 AM 71.6 °F - 69.8 °F 94% 30.04 in 10.0 mi ENE 9.2 mph - N/A   Overcast
5:54 AM 71.1 °F - 69.1 °F 93% 30.07 in 10.0 mi NE 5.8 mph - 0.00 in   Mostly Cloudy
6:54 AM 71.1 °F - 69.1 °F 93% 30.08 in 10.0 mi NE 9.2 mph - 0.00 in   Mostly Cloudy
7:54 AM 73.0 °F - 71.1 °F 93% 30.09 in 10.0 mi NE 12.7 mph - 0.00 in Rain Light Rain
8:54 AM 75.9 °F - 72.0 °F 87% 30.11 in 10.0 mi NE 16.1 mph 21.9 mph 0.00 in   Scattered Clouds
9:54 AM 77.0 °F - 71.1 °F 82% 30.11 in 10.0 mi NE 17.3 mph 23.0 mph N/A   Mostly Cloudy
10:54 AM 79.0 °F - 69.1 °F 72% 30.10 in 10.0 mi ENE 12.7 mph 23.0 mph N/A   Scattered Clouds
11:54 AM 80.1 °F 82.7 °F 68.0 °F 67% 30.07 in 10.0 mi ENE 20.7 mph 25.3 mph N/A   Scattered Clouds
12:54 PM 80.1 °F 82.7 °F 68.0 °F 67% 30.05 in 10.0 mi ENE 11.5 mph 26.5 mph N/A   Mostly Cloudy
1:54 PM 81.0 °F 84.1 °F 69.1 °F 67% 30.02 in 10.0 mi NE 19.6 mph 29.9 mph N/A   Scattered Clouds
2:54 PM 79.0 °F - 68.0 °F 69% 30.01 in 10.0 mi NE 18.4 mph 26.5 mph N/A   Mostly Cloudy
3:54 PM 79.0 °F - 68.0 °F 69% 30.01 in 10.0 mi ENE 16.1 mph 26.5 mph N/A   Mostly Cloudy
4:54 PM 77.0 °F - 70.0 °F 79% 30.02 in 10.0 mi NE 13.8 mph 23.0 mph 0.00 in Rain Light Rain
5:54 PM 73.0 °F - 70.0 °F 90% 30.05 in 10.0 mi ENE 12.7 mph - 0.02 in   Mostly Cloudy
6:54 PM 73.0 °F - 69.1 °F 87% 30.06 in 10.0 mi NE 15.0 mph - N/A   Overcast
7:54 PM 72.0 °F - 69.1 °F 91% 30.08 in 10.0 mi ENE 9.2 mph - 0.01 in Rain Light Rain
8:54 PM 73.0 °F - 69.1 °F 87% 30.10 in 10.0 mi NE 12.7 mph - 0.00 in   Overcast
9:54 PM 73.0 °F - 69.1 °F 87% 30.10 in 10.0 mi ENE 10.4 mph - N/A   Overcast
10:54 PM 73.0 °F - 68.0 °F 84% 30.10 in 10.0 mi ENE 10.4 mph - 0.00 in Rain Light Rain
11:54 PM 73.0 °F - 68.0 °F 84% 30.09 in 10.0 mi ENE 6.9 mph - 0.00 in   Overcast